�������l�o���
Date,Time,MP-1(��Sv/h),MP-2(��Sv/h),MP-3(��Sv/h),MP-4(��Sv/h),MP-5(��Sv/h),MP-6(��Sv/h),MP-7(��Sv/h),����,����(m/s),���J
2023/06/28,00:00,0.145,0.134,0.211,0.202,0.211,0.116,0.076,��,3.2,��
2023/06/28,00:10,0.148,0.134,0.213,0.205,0.212,0.116,0.075,��,3.6,��
2023/06/28,00:20,0.145,0.135,0.211,0.202,0.211,0.117,0.075,��쐼,3.8,��
2023/06/28,00:30,0.145,0.135,0.212,0.203,0.211,0.116,0.074,��쐼,3.1,��
2023/06/28,00:40,0.147,0.134,0.212,0.205,0.213,0.117,0.075,��쐼,4.1,��
2023/06/28,00:50,0.146,0.135,0.210,0.202,0.211,0.116,0.076,��,4.4,��
2023/06/28,01:00,0.144,0.134,0.212,0.203,0.210,0.116,0.076,��쐼,4.0,��
2023/06/28,01:10,0.147,0.134,0.211,0.205,0.213,0.116,0.076,��,2.4,��
2023/06/28,01:20,0.146,0.134,0.211,0.202,0.209,0.117,0.076,��,2.3,��
2023/06/28,01:30,0.145,0.134,0.212,0.205,0.212,0.116,0.077,��쐼,2.5,��
2023/06/28,01:40,0.146,0.135,0.210,0.204,0.212,0.116,0.076,��,2.0,��
2023/06/28,01:50,0.146,0.133,0.211,0.202,0.210,0.116,0.076,��쐼,2.2,��
2023/06/28,02:00,0.145,0.134,0.213,0.204,0.211,0.116,0.076,��쐼,4.1,��
2023/06/28,02:10,0.146,0.136,0.210,0.204,0.213,0.117,0.076,��쐼,3.4,��
2023/06/28,02:20,0.145,0.134,0.213,0.202,0.211,0.117,0.076,��,3.5,��
2023/06/28,02:30,0.145,0.135,0.211,0.203,0.210,0.116,0.075,��,3.6,��
2023/06/28,02:40,0.146,0.134,0.212,0.203,0.212,0.116,0.076,��쐼,4.2,��
2023/06/28,02:50,0.145,0.134,0.212,0.201,0.210,0.117,0.076,��쐼,6.2,��
2023/06/28,03:00,0.145,0.135,0.210,0.203,0.212,0.116,0.075,��쐼,4.5,��
2023/06/28,03:10,0.146,0.134,0.213,0.201,0.212,0.117,0.076,��쐼,4.6,��
2023/06/28,03:20,0.145,0.134,0.210,0.204,0.210,0.116,0.076,��쐼,4.9,��
2023/06/28,03:30,0.146,0.134,0.209,0.205,0.210,0.116,0.075,��쐼,3.8,��
2023/06/28,03:40,0.146,0.134,0.213,0.202,0.211,0.116,0.077,��쐼,2.7,��
2023/06/28,03:50,0.146,0.135,0.211,0.204,0.209,0.116,0.077,��쐼,2.0,��
2023/06/28,04:00,0.145,0.134,0.209,0.203,0.209,0.116,0.076,��쐼,2.3,��
2023/06/28,04:10,0.146,0.134,0.213,0.201,0.213,0.117,0.076,��,2.6,��
2023/06/28,04:20,0.146,0.135,0.211,0.203,0.211,0.116,0.076,��,1.9,��
2023/06/28,04:30,0.146,0.134,0.211,0.203,0.210,0.116,0.075,��쐼,1.4,��
2023/06/28,04:40,0.147,0.135,0.213,0.202,0.213,0.117,0.076,���쐼,1.5,��
2023/06/28,04:50,0.146,0.135,0.210,0.205,0.210,0.116,0.077,���쐼,1.8,�L
2023/06/28,05:00,0.148,0.134,0.211,0.203,0.210,0.116,0.076,��쐼,0.8,�L
2023/06/28,05:10,0.148,0.136,0.213,0.203,0.212,0.116,0.077,��쓌,0.9,�L
2023/06/28,05:20,0.146,0.135,0.210,0.206,0.213,0.117,0.076,��쓌,1.0,�L
2023/06/28,05:30,0.147,0.135,0.214,0.203,0.212,0.117,0.077,���쐼,0.7,�L
2023/06/28,05:40,0.148,0.136,0.213,0.203,0.214,0.118,0.078,��,0.7,�L
2023/06/28,05:50,0.146,0.136,0.212,0.206,0.211,0.118,0.077,�k��,1.6,�L
2023/06/28,06:00,0.148,0.136,0.215,0.205,0.211,0.118,0.077,�k�k��,2.3,�L
2023/06/28,06:10,0.148,0.136,0.213,0.203,0.213,0.118,0.077,�k�k��,2.2,�L
2023/06/28,06:20,0.147,0.135,0.213,0.206,0.213,0.118,0.077,�k,2.5,�L
2023/06/28,06:30,0.148,0.136,0.214,0.203,0.211,0.117,0.078,�k,2.8,�L
2023/06/28,06:40,0.148,0.137,0.213,0.203,0.214,0.119,0.078,�k,2.5,�L
2023/06/28,06:50,0.147,0.136,0.212,0.206,0.212,0.118,0.077,�k,2.1,�L
2023/06/28,07:00,0.147,0.136,0.214,0.203,0.211,0.118,0.078,�k�k��,2.3,��
2023/06/28,07:10,0.147,0.136,0.213,0.203,0.214,0.118,0.078,�k��,2.2,�L
2023/06/28,07:20,0.146,0.135,0.213,0.205,0.214,0.117,0.077,�k��,2.6,��
2023/06/28,07:30,0.147,0.136,0.214,0.204,0.211,0.118,0.078,�k�k��,3.6,��
2023/06/28,07:40,0.147,0.135,0.212,0.202,0.211,0.117,0.078,�k�k��,4.2,��
2023/06/28,07:50,0.147,0.134,0.210,0.205,0.213,0.118,0.077,�k�k��,3.4,�L
2023/06/28,08:00,0.145,0.136,0.212,0.203,0.213,0.117,0.076,�k�k��,2.9,�L
2023/06/28,08:10,0.147,0.137,0.214,0.203,0.210,0.117,0.077,�k,1.7,�L
2023/06/28,08:20,0.147,0.135,0.211,0.204,0.213,0.118,0.078,�k,1.6,�L
2023/06/28,08:30,0.145,0.134,0.211,0.205,0.213,0.117,0.077,�k,1.5,��
2023/06/28,08:40,0.146,0.136,0.213,0.202,0.212,0.116,0.077,�k�k��,0.8,��
2023/06/28,08:50,0.147,0.136,0.211,0.203,0.210,0.118,0.077,-,CALM,��
2023/06/28,09:00,0.146,0.134,0.211,0.203,0.210,0.117,0.077,���k��,0.9,��
2023/06/28,09:10,0.145,0.134,0.210,0.204,0.208,0.118,0.076,-,CALM,��
2023/06/28,09:20,0.147,0.135,0.211,0.203,0.212,0.116,0.077,-,CALM,��
2023/06/28,09:30,0.147,0.136,0.213,0.202,0.213,0.116,0.077,-,CALM,�L
2023/06/28,09:40,0.146,0.135,0.212,0.201,0.213,0.117,0.076,-,CALM,��
2023/06/28,09:50,0.146,0.136,0.212,0.200,0.210,0.116,0.076,��쓌,1.1,��
2023/06/28,10:00,0.145,0.135,0.210,0.202,0.211,0.116,0.075,��쓌,1.8,��
2023/06/28,10:10,0.144,0.134,0.210,0.200,0.210,0.116,0.075,�쓌,1.3,�L
2023/06/28,10:20,0.144,0.134,0.211,0.200,0.211,0.116,0.075,��쓌,2.3,��
2023/06/28,10:30,0.144,0.133,0.211,0.201,0.210,0.117,0.075,��쓌,2.5,��
2023/06/28,10:40,0.145,0.134,0.211,0.201,0.210,0.116,0.076,��쓌,3.7,��
2023/06/28,10:50,0.144,0.134,0.211,0.202,0.210,0.117,0.075,��쓌,4.2,��
2023/06/28,11:00,0.146,0.134,0.211,0.202,0.211,0.117,0.075,��쓌,3.9,��
2023/06/28,11:10,0.145,0.134,0.212,0.202,0.210,0.117,0.074,��쓌,4.0,��
2023/06/28,11:20,0.145,0.134,0.210,0.202,0.211,0.116,0.076,��쓌,3.3,��
2023/06/28,11:30,0.145,0.134,0.211,0.203,0.211,0.116,0.074,��쓌,2.7,��
2023/06/28,11:40,0.145,0.134,0.211,0.203,0.211,0.115,0.075,��쓌,3.6,��
2023/06/28,11:50,0.144,0.134,0.211,0.202,0.209,0.115,0.075,��쓌,3.8,��
2023/06/28,12:00,0.144,0.134,0.209,0.202,0.211,0.117,0.075,��쓌,5.2,��
2023/06/28,12:10,0.145,0.133,0.211,0.202,0.210,0.117,0.075,��쓌,6.1,��
2023/06/28,12:20,0.144,0.134,0.210,0.202,0.210,0.117,0.074,��,5.5,��
2023/06/28,12:30,0.145,0.133,0.211,0.201,0.210,0.115,0.074,��쓌,5.4,��
2023/06/28,12:40,0.145,0.134,0.211,0.202,0.210,0.116,0.075,��,6.5,��
2023/06/28,12:50,0.146,0.134,0.210,0.202,0.210,0.116,0.075,��쓌,6.5,�L
2023/06/28,13:00,0.145,0.134,0.211,0.201,0.210,0.116,0.075,��,6.7,�L
2023/06/28,13:10,0.144,0.134,0.211,0.202,0.209,0.116,0.075,��쓌,6.6,�L
2023/06/28,13:20,0.145,0.133,0.210,0.201,0.209,0.116,0.076,��,6.2,�L
2023/06/28,13:30,0.146,0.133,0.210,0.201,0.209,0.116,0.075,��쓌,5.6,��
2023/06/28,13:40,0.147,0.133,0.210,0.201,0.209,0.116,0.075,��,5.4,��
2023/06/28,13:50,0.146,0.134,0.210,0.201,0.210,0.115,0.074,��,5.0,��
2023/06/28,14:00,0.146,0.134,0.211,0.202,0.211,0.116,0.075,��쓌,4.9,��
2023/06/28,14:10,0.145,0.134,0.211,0.202,0.210,0.116,0.074,��쓌,5.1,��
2023/06/28,14:20,0.145,0.134,0.211,0.202,0.210,0.115,0.074,��쓌,4.7,��
2023/06/28,14:30,0.144,0.134,0.209,0.202,0.209,0.116,0.075,��쓌,5.7,��
2023/06/28,14:40,0.144,0.134,0.212,0.202,0.210,0.115,0.074,��쓌,5.3,��
2023/06/28,14:50,0.145,0.135,0.212,0.202,0.210,0.115,0.075,��쓌,5.2,��
2023/06/28,15:00,0.145,0.133,0.211,0.203,0.212,0.115,0.074,��쓌,7.0,��
2023/06/28,15:10,0.145,0.134,0.211,0.201,0.210,0.116,0.075,��,6.1,��
2023/06/28,15:20,0.144,0.134,0.211,0.202,0.210,0.117,0.075,��,6.0,��
2023/06/28,15:30,0.144,0.133,0.209,0.201,0.209,0.116,0.075,��쓌,6.4,��
2023/06/28,15:40,0.143,0.132,0.210,0.201,0.209,0.115,0.075,��,6.7,��
2023/06/28,15:50,0.144,0.134,0.210,0.202,0.208,0.115,0.074,��,6.5,��
2023/06/28,16:00,0.144,0.133,0.209,0.203,0.208,0.115,0.074,��쓌,5.7,�L
2023/06/28,16:10,0.145,0.135,0.209,0.205,0.209,0.116,0.075,��,4.9,�L
2023/06/28,16:20,0.147,0.135,0.210,0.203,0.211,0.117,0.076,��,6.3,�L
2023/06/28,16:30,0.145,0.134,0.214,0.202,0.212,0.117,0.075,��,4.6,�L
2023/06/28,16:40,0.145,0.134,0.213,0.202,0.211,0.116,0.076,��,6.0,�L
2023/06/28,16:50,0.147,0.136,0.212,0.205,0.210,0.117,0.076,��쐼,6.4,�L
2023/06/28,17:00,0.147,0.135,0.211,0.205,0.212,0.117,0.075,��,5.0,��
2023/06/28,17:10,0.147,0.135,0.213,0.204,0.214,0.116,0.075,��,6.2,�L
2023/06/28,17:20,0.145,0.133,0.213,0.204,0.212,0.115,0.076,��,5.9,�L
2023/06/28,17:30,0.147,0.136,0.212,0.205,0.210,0.116,0.076,��쐼,5.3,�L
2023/06/28,17:40,0.148,0.136,0.212,0.204,0.211,0.117,0.076,��쐼,4.7,�L
2023/06/28,17:50,0.147,0.134,0.214,0.204,0.214,0.116,0.076,��쐼,4.1,�L
2023/06/28,18:00,0.146,0.137,0.215,0.205,0.214,0.117,0.078,�쐼,3.6,�L
2023/06/28,18:10,0.149,0.138,0.214,0.208,0.212,0.120,0.078,�쐼,2.5,�L
2023/06/28,18:20,0.150,0.138,0.215,0.207,0.215,0.121,0.079,��쐼,2.5,�L
2023/06/28,18:30,0.149,0.139,0.219,0.207,0.217,0.122,0.081,�쐼,3.7,�L
2023/06/28,18:40,0.152,0.142,0.218,0.211,0.215,0.124,0.083,���쐼,3.2,�L
2023/06/28,18:50,0.153,0.142,0.218,0.211,0.215,0.125,0.083,���k��,2.5,�L
2023/06/28,19:00,0.153,0.142,0.220,0.210,0.218,0.125,0.085,���k��,2.1,�L
2023/06/28,19:10,0.153,0.143,0.219,0.211,0.218,0.125,0.086,�k�k��,2.3,�L
2023/06/28,19:20,0.156,0.144,0.218,0.211,0.217,0.127,0.086,�k,3.2,�L
2023/06/28,19:30,0.156,0.145,0.220,0.208,0.218,0.127,0.087,�k,2.6,�L
2023/06/28,19:40,0.152,0.144,0.219,0.210,0.220,0.125,0.087,�k�k��,2.6,�L
2023/06/28,19:50,0.154,0.143,0.218,0.210,0.215,0.125,0.084,�k��,3.9,�L
2023/06/28,20:00,0.152,0.142,0.218,0.207,0.215,0.124,0.084,�k��,3.6,�L
2023/06/28,20:10,0.150,0.140,0.215,0.206,0.216,0.122,0.084,�k�k��,4.5,�L
2023/06/28,20:20,0.151,0.139,0.212,0.206,0.213,0.121,0.082,�k�k��,5.1,�L
2023/06/28,20:30,0.149,0.137,0.214,0.204,0.210,0.120,0.079,�k�k��,5.1,�L
2023/06/28,20:40,0.147,0.137,0.212,0.201,0.212,0.118,0.080,�k�k��,5.2,�L
2023/06/28,20:50,0.147,0.135,0.209,0.203,0.212,0.118,0.078,�k�k��,5.2,�L
2023/06/28,21:00,0.148,0.134,0.210,0.202,0.210,0.117,0.078,�k,6.5,�L
2023/06/28,21:10,0.145,0.136,0.209,0.198,0.208,0.117,0.078,�k,5.7,�L
2023/06/28,21:20,0.145,0.135,0.208,0.203,0.211,0.116,0.077,�k,6.9,�L
2023/06/28,21:30,0.147,0.135,0.210,0.201,0.209,0.119,0.077,�k,7.0,�L
2023/06/28,21:40,0.147,0.138,0.209,0.200,0.210,0.120,0.080,�k,6.4,�L
2023/06/28,21:50,0.146,0.139,0.210,0.203,0.212,0.120,0.082,�k�k��,6.0,�L
2023/06/28,22:00,0.148,0.139,0.213,0.204,0.212,0.122,0.082,�k,5.0,�L
2023/06/28,22:10,0.148,0.139,0.212,0.203,0.212,0.122,0.084,�k�k��,4.0,�L
2023/06/28,22:20,0.149,0.139,0.212,0.206,0.216,0.122,0.083,�k�k��,4.1,�L
2023/06/28,22:30,0.149,0.140,0.215,0.206,0.213,0.124,0.084,�k�k��,3.5,�L
2023/06/28,22:40,0.149,0.142,0.212,0.205,0.214,0.124,0.085,�k�k��,3.1,�L
2023/06/28,22:50,0.150,0.141,0.214,0.207,0.217,0.124,0.085,�k��,3.8,�L
2023/06/28,23:00,0.150,0.142,0.214,0.205,0.214,0.124,0.086,�k�k��,4.9,�L
2023/06/28,23:10,0.150,0.141,0.211,0.204,0.214,0.123,0.086,�k�k��,6.4,�L
2023/06/28,23:20,0.152,0.142,0.215,0.205,0.217,0.122,0.086,�k��,9.8,�L
2023/06/28,23:30,0.152,0.143,0.212,0.204,0.214,0.125,0.087,��,2.7,�L
2023/06/28,23:40,0.152,0.142,0.214,0.205,0.217,0.125,0.087,���쐼,8.8,�L
2023/06/28,23:50,0.154,0.144,0.214,0.205,0.216,0.125,0.088,�k,5.8,�L
